Retour au catalogue

KUIPER-00541

ActifCommunicationsVLEO
NORAD 69610·PAYLOAD·🇺🇸 United States

Lancé Jun 17, 2026 depuis Guiana Space Centre

Loading…

Prochains Passages (prochaines 24 heures)

TLE

FraisSource: CelesTrak SupGP

Époque: Sep 14, 2026, 21:20 UTC

1 69610C 26140U   26257.88898148 -.01130600  00000+0 -43285-1 0  2573
2 69610  51.8867 324.8845 0006937 165.5804 223.6630 15.27095526    12

Suivez KUIPER-00541 en temps réel avec AllMySat

Download on the App Store